Regional Weather Roundup
Issued by NWS

Home | Current Version | Previous Version | Text Only | Print | Product List | Glossary Off
Versions: 1 2 3 4 5 6 7 8 9 10 11 12 13 14 15 16 17 18 19 20 21 22 23 24 25 26 27 28 29 30 31 32 33 34 35 36 37 38 39 40 41 42 43 44 45 46 47 48 49 50

000
ASUS43 KMKX 051111
RWRWI

WISCONSIN REGIONAL WEATHER ROUNDUP
NATIONAL WEATHER SERVICE MILWAUKEE/SULLIVAN WI
600 AM CDT SAT SEP 05 2015

NOTE: "FAIR" INDICATES FEW OR NO CLOUDS BELOW 12,000 FEET WITH NO
SIGNIFICANT WEATHER AND/OR OBSTRUCTIONS TO VISIBILITY.

WIZ001-002-006>008-014>016-023>028-051200-
NORTHWEST WISCONSIN

CITY           SKY/WX    TMP DP  RH WIND       PRES   REMARKS
SUPERIOR ARPT  CLOUDY    61  60  95 CALM      30.00S
ASHLAND        PTCLDY    64  64 100 CALM      30.03R
HAYWARD        CLEAR     68  65  90 CALM      30.03R
SIREN          CLEAR     69  68  95 S6        29.98F
CUMBERLAND     MOCLDY    64  64 100 SE6       30.02R FOG
RICE LAKE      PTCLDY    68  65  90 SE7       30.03S
CHETEK         PTCLDY    67  66  96 MISG      30.03R
LADYSMITH      CLEAR     66  64  94 SE5       30.06S FOG
EAU CLAIRE     MOCLDY    68  66  93 E6        30.00R
MENOMONIE      PTCLDY    71  70  98 CALM      30.00S FOG
NEW RICHMOND   MOCLDY    73  70  93 SE5       29.99S
OSCEOLA        PTCLDY    73  73 100 SE6       30.00S
$$

WIZ003>005-009-010-017-018-051200-
NORTH CENTRAL WISCONSIN

CITY           SKY/WX    TMP DP  RH WIND       PRES   REMARKS
MANITOWISH WTR CLOUDY    65  65 100 S6        30.08S FOG
ARBOR VITAE    CLOUDY    66  64  95 S3        30.09R FOG
WOODRUFF       CLOUDY    66  64  95 S3        30.09R FOG
RHINELANDER    CLOUDY    66  64  93 CALM      30.09S FOG
EAGLE RIVER    CLOUDY    64  64 100 CALM      30.09R FOG
LAND O LAKES   CLOUDY    65  64  96 CALM      30.10R
PHILLIPS       MOCLDY    66  65  99 SE3       30.06S FOG
TOMAHAWK       CLOUDY    65  64  96 CALM      30.09R FOG
MEDFORD        FOG       65  65 100 SE6       30.06F VSB 1
MERRILL        CLOUDY    66  66 100 CALM      30.08S FOG
$$

WIZ029-030-035-036-043>047-051200-
CENTRAL WISCONSIN

CITY           SKY/WX    TMP DP  RH WIND       PRES   REMARKS
WAUSAU         CLOUDY    67  65  93 SE3       30.06S FOG
MOSINEE        CLOUDY    64  64 100 CALM      30.08F FOG
MARSHFIELD     CLOUDY    68  64  87 SE6       30.06S FOG
STEVENS POINT  MOCLDY    64  63  99 CALM      30.07S FOG
WAUPACA        MOCLDY    67  67  99 CALM      30.07F FOG
WAUTOMA        PTCLDY    63  63 100 CALM      30.07S FOG
WISC RAPIDS    CLOUDY    65  63  93 SE3       30.07S
CAMP DOUGLAS   CLOUDY    68  68 100 SE3       30.04F FOG
$$

WIZ011>013-019>022-031-037>040-048>050-051200-
NORTHEAST WISCONSIN

CITY           SKY/WX    TMP DP  RH WIND       PRES   REMARKS
ANTIGO         CLOUDY    64  64 100 SE5       30.09S FOG
SHAWANO        NOT AVBL
OCONTO         CLOUDY    58  58 100 CALM      30.07S
STURGEON BAY   CLOUDY    66  63  88 CALM      30.10S VSB<1/4
GREEN BAY      FOG       62  62 100 CALM      30.07F VSB 1/4
MANITOWOC      FOG       63  61  94 MISG      30.08F VSB 1
APPLETON       CLOUDY    66  66 100 VRB3      30.06S FOG
CLINTONVILLE   CLOUDY    63  63 100 CALM      30.07S FOG
OSHKOSH        MOCLDY    65  63  93 CALM      30.06F FOG
$$

WIZ032>034-041-042-053>061-051200-
SOUTHWEST WISCONSIN

CITY           SKY/WX    TMP DP  RH WIND       PRES   REMARKS
LA CROSSE      LGT RAIN  73  69  87 S7        30.00S
SPARTA         CLOUDY    69  67  93 CALM      30.03S
VIROQUA        CLOUDY    71  71  98 S8        30.05S
BOSCOBEL       CLOUDY    73  71  93 CALM      30.04S FOG
PRAIRIE DU CHI CLOUDY    73  70  91 CALM      30.03R
PLATTEVILLE    CLOUDY    71  71  99 E5        30.06R
$$

WIZ056-057-062-063-064-067-068-051200-
SOUTH CENTRAL WISCONSIN

CITY           SKY/WX    TMP DP  RH WIND       PRES   REMARKS
REEDSBURG      PTCLDY    67  67  98 CALM      30.06R FOG
BARABOO/DELLS  PTCLDY    65  64  93 CALM      30.07R FOG
LONE ROCK      LGT RAIN  70  68  93 SE5       30.06F FOG
MINERAL POINT  LGT RAIN  72  70  94 NE5       30.07F
MADISON        MOCLDY    66  64  93 CALM      30.07R
MIDDLETON      CLEAR     66  66  99 CALM      30.08S
WATERTOWN      CLOUDY    65  65 100 CALM      30.07R FOG
MONROE         MOCLDY    66  64  94 CALM      30.07R FOG
JANESVILLE     MOCLDY    68  66  94 CALM      30.06R
$$

WIZ051-052-058>065-066-070>072-051200-
SOUTHEAST WISCONSIN

CITY           SKY/WX    TMP DP  RH WIND       PRES   REMARKS
MILWAUKEE      CLOUDY    65  64  97 CALM      30.07S THUNDER
WAUKESHA       CLOUDY    64  64 100 E5        30.09S
MILWAUKEE/TIMM CLOUDY    64  61  88 CALM      30.08S FOG
RACINE         CLOUDY    68  66  93 CALM      30.09S FOG
BURLINGTON     CLOUDY    64  63  98 CALM      30.07F FOG
KENOSHA        FOG       64  63  96 E3        30.08S VSB 1/4
FOND DU LAC    PTCLDY    65  64  97 CALM      30.06F
SHEBOYGAN      FOG       64  64 100 CALM      30.07S VSB 1/4
WEST BEND      FOG       63  61  94 CALM      30.08S VSB 3/4
JUNEAU         MOCLDY    64  63  97 CALM      30.08S FOG
$$

LSZ147-162-051200-
LAKE SUPERIOR

STATION/POSITION TIME  TEMP    WIND        PRES    WAVE
                       AIR SEA DIR/SP/G            HT/PER
                 (UTC) (F)     (DEG/KT/KT) (MB)    (FT/S)
W MID LAKE BUOY  1050   62 57  110/  6/  8 1016.1F   1/ 4
DEVILS ISLAND    1100   68     160/ 11/ 15 1015.4F
PORT WING        1040   62     190/  2/  3 1016.3F
SAXON HARBOR     1000   72     190/  2/  8 1015.2R
$$

LMZ867-665-643>646-051200-
LAKE MICHIGAN

STATION/POSITION TIME  TEMP    WIND        PRES    WAVE
                       AIR SEA DIR/SP/G            HT/PER
                 (UTC) (F)     (DEG/KT/KT) (MB)    (FT/S)
CHAMBERS ISLAND  1000   65      CALM  /  1 1018.3R
S GREEN BAY BUOY 1100   65 67  160/  2/  2 1019.6F
N MID LAKE BUOY  1050   67 67  240/  6/  8 1017.9R   0
NORTHPORT PIER   1100   67      CALM  /  6 1017.9S
SISTER BAY       1011   66        CALM       N/A
ALGOMA LAKESHORE 1014             CALM       N/A
KEWAUNEE LAKESHO 1000   62        CALM     1017.6R
SHEBOYGAN LAKESH 1100   59      CALM  /  1 1018.7R
PORT WASHINGTON  1040   60      CALM  /  1 1019.3R
ATWATER BUOY     1100   59 59  310/  2/  2 1020.0R
MILWAUKEE LAKESH 1010   61      30/  4/  5   N/A
S MID LAKE BUOY  1050   70 71   90/  6/  6 1017.9S   0
KENOSHA   LAKESH 1100   64     350/  2/  2 1017.9S
$$

TC  - TEMPERATURE IN CELSIUS
VSB - VISIBILITY IN STATUTE MILES
WCI - WIND CHILL INDEX
HX  - HEAT INDEX



USA.gov is the U.S. government's official web portal to all federal, state and local government web resources and services.